sat.trackr.live / text

‹ back to catalog

STARLINK-3544

NORAD 51803 · 2022-017AM

PAYLOAD ACTIVE UNKNOWN

§ Identity

Operator
Country
US
Launch date
2022-02-25
Launch site
AFWTR
Launch vehicle
Mass (kg)
RCS (m²)

Purposes: comms

External: N2YO · Heavens-Above · Gunter

§ Orbital elements

Epoch: 2026-09-19T06:36:12.686976Z

Period
93.85 min
Inclination
53.1613°
Eccentricity
0.0001481
Mean motion
15.34390622 rev/d
Perigee alt
461.7 km
Apogee alt
463.7 km
Semi-major
6,840.9 km
B*
1.9078e-5
RAAN
183.7866°
Arg perigee
86.5006°
Mean anomaly
273.6166°
Rev number
25,336

§ Raw data

STARLINK-35441 51803U 22017AM  26262.27514684  .00000268  00000+0  19078-4 0  99982 51803  53.1613 183.7866 0001481  86.5006 273.6166 15.34390622253361

JSON: /api/v1/satellites/51803 · /tle

For live sub-satellite position, see the globe view (requires WebGL).

§ Visibility from observer

Set your observer location to see the next 7 days of passes ≥ 10°. The values pass through the URL so the page stays shareable.

No JS? Fill the form by hand. The geolocation button needs JavaScript.